Home > Weather > Charlotte Amalie > Past weeks

Flag for US Virgin Islands Past Weather in Charlotte Amalie, US Virgin Islands — Yesterday and Last 2 Weeks

Now
83 °F

Partly sunny.


Feels Like: 89 °F
Forecast: N/A
Wind: 8 mph from East

Location: Cyril E. King International Airport

Current Time: May 26, 2016 at 6:33:41 PM

Latest Report: May 26, 2016 at 5:53 PM


Visibility: 9 mi

Pressure: 29.94 "Hg

Humidity: 74%

Dew Point: 74 °F

Location of Charlotte AmalieLocation

Past Weather in Charlotte Amalie — Graph

°F

Charlotte Amalie Temperature Yesterday

Maximum temperature yesterday: 87 °F (at 1:53 PM)
Minimum temperature yesterday: 79 °F (at 5:53 AM)
Average temperature yesterday: 83 °F

High & Low Weather Summary for the Past Weeks

 TemperatureHumidityPressure
High89 °F (May 17, 3:00 PM)90% (May 13, 1:41 AM)30.12 "Hg (May 13, 1:41 AM)
Low78 °F (May 12, 11:53 PM)59% (May 15, 12:53 PM)29.93 "Hg (May 26, 3:53 PM)
Average84 °F73%30.04 "Hg
* Reported May 11 4:53 PM — May 26 4:53 PM, Charlotte Amalie, Weather by CustomWeather, © 2016

Note: Actual official high and low records may vary slightly from our data, if they occured in-between our weather recording intervals... More about our weather records

Advertising

Charlotte Amalie Weather History for the Previous 24 Hours

Scroll right to see more
 ConditionsComfort  
Time TempWeatherWind HumidityBarometerVisibility
4:53 PM
Thu, May 26
85 °FScattered clouds.9 mph70%29.93 "Hg10 mi
3:53 PM83 °FBroken clouds.7 mph70%29.93 "Hg10 mi
2:53 PM83 °FPartly sunny.12 mph74%29.95 "Hg10 mi
1:53 PM84 °FMostly cloudy.14 mph67%29.97 "Hg10 mi
1:03 PM85 °FPartly sunny.14 mph70%29.97 "Hg10 mi
12:53 PM85 °FPartly sunny.13 mph68%29.97 "Hg10 mi
11:53 AM87 °FPassing clouds.12 mph61%29.98 "Hg10 mi
10:53 AM86 °FScattered clouds.9 mph61%30.00 "Hg10 mi
9:53 AM86 °FScattered clouds.9 mph61%30.01 "Hg10 mi
8:53 AM85 °FScattered clouds.8 mph63%30.01 "Hg10 mi
7:53 AM84 °FPassing clouds.10 mph67%30.01 "Hg10 mi
6:53 AM81 °FSunny.6 mph74%30.01 "Hg10 mi
5:53 AM79 °FSunny.3 mph77%30.00 "Hg10 mi
4:53 AM79 °FClear.5 mph77%29.98 "Hg10 mi
3:53 AM79 °FClear.5 mph77%29.98 "Hg10 mi
2:53 AM79 °FClear.5 mph77%29.98 "Hg10 mi
1:53 AM79 °FClear.7 mph74%30.00 "Hg10 mi
12:53 AM79 °FClear.6 mph74%30.02 "Hg10 mi
11:53 PM
Wed, May 25
80 °FClear.6 mph74%30.04 "Hg10 mi
10:53 PM81 °FClear.7 mph74%30.05 "Hg10 mi
9:53 PM81 °FClear.8 mph72%30.05 "Hg10 mi
8:53 PM81 °FClear.8 mph69%30.04 "Hg10 mi
7:53 PM82 °FClear.9 mph72%30.03 "Hg10 mi
6:53 PM83 °FClear.10 mph68%30.02 "Hg10 mi
Weather by CustomWeather, © 2016

See weather overviewHow to use our weather pages